Theta_e
326 328 329 330 330 330 330 330 330 329 329 329 329 329 329 329 329 330 330 330 331 330 330 330 330 330 330 330 329 329 328 328 328 327 327 327 327 326 326 326 326 325
324 325 326 327 328 329 329 329 329 329 329 329 329 329 329 329 329 329 329 329 330 330 330 330 330 330 330 330 329 329 328 328 328 328 327 327 327 326 326 326 326 326
320 321 322 323 324 325 325 326 327 328 328 328 329 328 328 328 328 328 328 328 328 328 329 329 330 330 330 330 329 329 328 328 328 328 327 327 327 327 327 326 326 326
316 316 317 318 319 320 321 322 323 323 324 324 325 325 325 325 325 325 325 325 326 326 327 328 328 329 330 330 329 329 329 328 328 328 327 327 327 327 327 327 326 326
315 315 315 316 316 317 318 319 319 319 320 320 320 320 321 321 322 322 323 323 324 324 325 326 327 328 329 329 329 329 329 328 328 328 327 327 327 327 326 326 326 326
314 314 315 315 315 315 316 316 316 316 317 317 317 317 317 318 319 320 320 321 322 323 324 324 325 326 327 328 329 329 329 329 328 328 327 327 327 327 327 326 326 326
313 313 314 314 314 314 315 315 315 314 315 315 315 315 315 316 317 317 318 319 320 321 322 323 323 324 326 327 328 329 329 329 328 328 328 327 327 327 326 326 326 326
313 313 313 314 314 314 314 314 314 313 313 314 314 314 314 315 315 315 316 317 318 319 320 321 322 323 324 325 326 328 328 328 328 328 328 327 327 327 327 327 326 326
313 313 314 314 314 314 313 313 313 313 313 313 313 313 313 313 313 313 314 315 316 317 317 319 320 321 323 324 325 326 327 328 328 328 328 327 327 327 327 327 326 326
312 313 314 314 314 314 313 313 313 313 312 313 312 312 312 312 312 312 313 314 314 314 315 316 317 318 319 321 322 324 325 326 327 327 328 328 327 327 327 327 326 326
312 313 313 314 314 313 313 313 313 312 313 312 312 312 311 311 312 312 312 313 313 313 314 314 314 315 316 317 319 320 322 324 325 326 327 327 327 327 327 327 326 326
312 312 313 313 312 312 312 312 312 312 312 312 312 312 311 312 312 312 311 312 312 313 313 313 313 313 314 315 317 318 320 322 323 324 325 326 326 326 326 327 326 326
311 311 311 311 311 311 311 311 311 312 312 312 312 312 311 311 312 311 311 311 311 312 312 312 312 312 313 313 315 316 318 320 322 323 324 325 326 326 326 326 326 326
310 310 310 310 311 311 311 311 311 311 311 312 312 312 311 311 311 311 311 311 311 311 311 311 311 311 311 312 312 314 316 318 320 322 323 324 325 325 326 326 326 326
309 309 309 310 310 310 311 311 311 311 311 311 311 311 311 311 311 311 310 310 310 310 310 310 310 310 310 311 311 313 315 317 319 320 322 323 324 324 325 325 325 325
307 308 308 309 309 309 310 310 310 310 310 310 310 310 311 311 311 311 310 310 310 310 310 310 310 310 310 310 310 311 313 316 318 319 320 321 322 323 323 324 324 324
305 305 306 306 307 307 308 308 309 309 309 309 309 309 310 310 310 310 310 310 310 309 309 309 309 309 309 309 309 309 310 312 315 317 318 319 320 321 321 322 322 323
302 302 302 303 304 304 305 306 306 307 307 307 308 308 308 308 308 309 309 309 309 308 308 308 309 309 308 307 307 308 308 309 311 312 315 316 318 319 320 321 321 321
299 299 300 300 301 301 302 303 303 304 304 304 304 305 306 306 307 307 307 307 307 307 307 307 308 308 308 307 307 307 307 307 308 309 311 312 314 316 318 319 320 320
297 297 298 298 299 299 300 300 300 300 301 300 301 302 302 303 304 304 305 305 305 305 305 306 307 307 307 306 306 306 305 305 306 306 308 308 310 312 314 316 317 319
292 293 294 295 296 297 297 298 298 298 298 298 298 299 299 300 301 301 302 303 303 303 303 304 305 306 305 304 305 305 304 304 304 305 305 306 306 308 309 311 313 315
287 288 289 290 291 292 293 294 295 295 296 296 296 297 298 297 298 299 299 300 301 301 301 302 304 304 303 303 304 304 303 303 303 303 304 304 304 305 306 307 309 311
286 287 288 288 289 290 290 291 292 293 293 294 295 296 296 296 297 297 298 298 298 299 299 300 302 303 302 302 302 302 302 302 302 302 302 302 303 303 304 304 305 307
287 287 288 288 289 289 290 291 292 292 292 293 293 293 294 295 296 296 297 297 297 298 298 298 299 301 300 300 301 301 301 301 301 301 301 301 301 302 302 303 303 304
287 288 288 289 289 289 290 291 291 292 292 292 292 293 293 294 294 294 296 297 296 296 297 297 297 299 299 299 299 300 300 300 300 300 300 300 301 301 301 301 302 302
287 288 288 289 289 289 289 290 291 291 292 292 292 293 293 293 293 293 294 295 295 295 296 296 296 297 298 298 298 298 298 299 299 300 300 300 301 301 301 301 301 302
Wind_Speed
33 34 34 35 35 35 35 34 33 32 32 32 32 33 34 35 36 36 37 38 39 40 41 42 42 42 43 43 42 42 42 41 41 41 41 41 42 42 42 42 42 41
23 26 29 31 32 33 34 34 34 34 34 34 34 34 34 35 34 34 35 36 37 39 40 41 42 42 42 42 42 41 42 41 42 42 41 42 42 41 42 43 43 43
17 19 21 24 26 28 29 30 32 32 33 34 34 34 34 34 34 34 35 35 36 37 38 39 41 42 42 42 41 41 42 41 43 42 41 42 42 41 42 41 41 42
17 18 19 20 22 22 23 24 26 28 29 31 32 32 32 33 33 33 34 34 35 36 37 38 39 40 41 41 41 41 42 42 43 41 39 41 41 40 41 40 40 40
15 16 17 18 20 21 22 22 24 25 26 28 29 29 30 30 31 32 33 33 34 35 36 36 37 38 39 39 40 40 41 41 41 39 38 40 40 40 41 39 39 40
15 15 15 15 17 18 20 21 23 24 25 26 27 27 28 29 29 30 31 32 33 34 35 35 36 37 37 38 38 39 40 40 40 38 38 40 40 40 40 39 39 41
17 17 17 17 17 17 19 20 22 23 24 25 26 26 27 28 29 30 30 31 31 32 33 34 35 35 36 36 36 38 39 39 39 38 39 40 40 40 40 39 40 40
19 19 19 19 19 19 20 21 22 24 25 25 26 26 26 27 28 29 30 30 30 31 32 32 33 34 34 33 34 36 37 38 38 37 38 39 38 38 40 39 39 39
22 21 20 21 21 21 22 22 23 24 26 27 27 27 26 27 27 28 29 29 29 30 30 31 32 32 33 33 33 34 35 36 37 36 37 38 38 39 40 38 38 38
23 22 21 21 22 22 22 22 23 24 26 28 28 27 26 26 26 26 27 28 30 30 30 30 31 31 32 32 33 34 35 36 36 36 37 38 39 40 40 38 38 39
22 22 21 21 21 22 22 23 23 24 26 27 27 27 25 25 27 28 27 27 29 30 30 30 31 31 31 32 33 33 34 36 36 36 37 38 39 40 40 39 39 40
19 20 20 21 21 22 23 24 24 25 26 26 26 26 25 26 29 31 30 28 28 28 29 30 31 31 31 32 32 32 33 35 36 37 37 38 39 39 39 39 39 41
17 17 18 19 20 22 24 24 24 25 26 27 26 26 27 28 30 32 31 30 29 28 28 29 30 31 32 32 32 32 33 33 35 36 36 37 38 39 39 39 40 41
15 15 16 17 18 20 22 23 23 24 24 26 27 27 28 29 31 33 32 30 29 28 28 29 29 31 32 32 32 33 32 33 34 35 35 36 37 38 39 39 40 41
14 14 15 16 17 18 19 20 21 22 23 24 26 27 28 29 30 32 32 31 29 29 29 30 31 32 33 32 32 33 33 33 33 34 34 35 36 37 38 38 39 40
13 14 15 15 16 17 18 18 19 19 21 23 24 26 26 27 28 30 31 31 30 30 31 32 33 34 34 32 31 32 32 33 33 34 34 34 35 36 37 38 39 39
13 14 14 15 15 16 17 18 19 19 21 22 24 25 26 27 29 31 31 32 31 32 33 34 35 36 35 33 31 31 31 32 33 34 34 33 34 35 36 37 38 38
15 17 17 17 17 18 19 19 20 21 22 24 24 25 26 27 29 31 32 32 33 33 35 36 37 37 35 33 31 31 30 31 33 34 34 34 34 34 36 36 36 37
18 20 21 21 21 22 22 22 23 24 25 26 26 26 27 27 29 30 31 33 33 33 35 37 38 38 36 33 32 31 29 29 31 34 34 34 34 35 35 35 35 35
19 20 22 22 23 23 24 25 25 25 26 26 26 27 28 29 30 31 32 33 33 33 35 37 39 39 36 33 32 31 29 28 30 33 33 33 34 35 35 35 35 35
20 20 21 22 23 23 24 25 25 25 26 26 26 27 28 29 30 31 32 34 34 33 33 36 40 40 36 33 32 31 29 28 29 31 33 33 34 35 34 35 35 35
21 20 20 22 24 24 24 25 25 26 26 26 27 28 28 29 29 30 31 33 33 32 32 35 40 41 36 33 32 30 28 27 28 30 31 33 35 35 34 34 35 35
22 21 20 22 24 25 25 26 26 27 26 25 26 28 28 28 28 29 30 31 32 32 31 33 39 41 36 33 33 31 27 27 28 29 30 31 33 34 32 33 35 36
21 21 21 22 23 23 25 27 27 28 27 26 25 26 28 27 27 28 30 29 29 29 29 30 35 38 35 32 33 31 27 27 27 27 28 30 31 31 31 32 34 35
20 19 20 22 23 24 24 26 26 26 26 26 25 25 27 27 25 26 28 29 27 26 27 27 30 34 33 30 31 30 27 26 26 25 26 28 28 28 31 32 33 34
19 19 20 21 22 24 24 23 24 24 24 24 25 24 25 26 25 24 26 28 26 24 25 25 25 29 30 27 27 28 25 23 24 25 26 26 26 27 30 31 32 33
Wind_Direction
247 246 246 247 249 250 252 254 255 255 255 254 253 253 253 254 254 254 252 252 252 251 251 251 249 248 247 246 245 243 243 243 243 243 242 241 241 241 241 241 241 241
259 256 254 253 254 256 257 258 259 259 258 259 259 258 259 259 258 257 256 255 254 253 253 252 251 250 248 247 245 244 243 243 243 243 241 241 241 241 241 242 242 242
275 270 265 262 262 263 265 265 264 264 263 263 263 263 263 263 263 262 260 259 257 256 255 254 252 251 250 249 246 245 244 243 243 243 242 242 242 242 243 243 243 242
279 276 272 271 270 271 272 272 270 269 268 268 267 267 267 266 266 264 263 262 260 259 258 256 255 253 251 250 248 246 245 245 245 244 243 243 243 243 244 244 244 244
287 280 274 271 270 272 274 273 272 272 271 271 272 273 272 271 269 268 266 265 263 262 260 258 257 255 253 251 248 247 247 246 247 245 243 244 244 244 245 244 244 244
293 290 285 279 274 272 273 272 272 273 274 274 275 277 277 276 275 272 271 269 266 265 263 261 259 257 255 253 250 248 247 247 247 245 243 244 245 244 244 243 243 244
290 291 291 290 286 281 277 275 276 277 278 280 281 281 282 281 280 278 276 274 271 269 267 264 262 260 258 254 251 249 249 248 248 246 244 244 245 245 244 243 243 244
288 287 288 289 289 288 286 284 285 286 288 288 287 288 289 288 287 286 284 281 278 274 272 270 267 265 263 259 254 253 251 249 248 246 245 245 245 245 244 243 243 244
289 287 286 286 286 287 289 291 292 295 295 293 292 294 294 293 291 291 290 287 284 281 278 275 272 270 268 264 260 258 255 253 251 248 246 245 244 245 245 244 243 244
293 292 290 288 288 290 292 295 297 298 298 297 296 295 297 299 298 295 293 290 287 285 283 280 277 275 273 269 266 263 261 259 256 252 249 248 246 246 246 244 243 244
297 299 298 297 298 298 300 302 303 302 301 300 298 296 298 304 305 301 297 293 289 288 286 285 283 281 278 275 272 269 266 263 261 258 254 252 250 249 248 246 244 244
302 307 310 311 311 310 310 310 309 308 307 304 301 298 298 302 303 302 300 296 293 290 288 287 287 286 283 281 278 275 271 268 265 262 259 257 254 252 251 248 247 247
316 320 321 321 318 317 316 315 314 313 310 307 304 298 296 299 300 300 301 300 296 292 289 289 288 287 285 284 282 279 275 272 269 265 263 260 258 256 254 251 249 249
328 325 323 321 318 317 315 315 315 314 311 308 305 300 298 299 300 301 302 301 297 294 292 291 289 287 285 283 282 280 276 273 270 267 265 263 261 259 257 254 252 251
328 325 322 320 318 316 315 315 315 314 313 309 304 301 299 298 299 301 301 300 298 297 295 293 290 288 287 285 282 281 278 274 271 268 265 263 262 261 259 257 255 253
326 324 322 321 320 318 316 315 315 314 312 308 304 301 298 297 298 298 298 298 298 297 296 294 292 290 289 288 285 283 281 278 275 272 268 265 263 262 261 259 257 256
326 323 323 324 323 321 318 316 316 313 310 307 304 302 300 299 298 297 296 297 297 296 296 294 293 293 292 291 289 286 283 280 278 275 273 270 266 263 262 261 260 259
331 328 328 329 328 325 321 319 317 314 312 311 309 306 305 301 298 297 296 297 296 295 294 293 293 294 294 294 292 289 286 282 278 276 273 272 270 267 265 264 263 262
335 332 331 332 331 328 323 321 319 316 315 315 313 310 307 302 299 298 297 296 297 295 294 294 294 293 294 295 294 293 290 285 281 277 274 271 270 269 268 267 265 264
341 338 335 334 333 330 326 324 323 321 318 318 316 311 307 304 301 299 298 297 297 297 296 295 294 293 294 296 296 295 293 288 284 280 276 273 270 269 268 267 267 265
349 344 340 338 337 335 332 329 328 325 322 322 320 313 309 307 303 301 300 298 299 299 298 296 294 294 296 297 296 297 295 290 285 281 278 275 273 271 268 267 267 266
350 345 342 343 342 340 337 334 331 328 325 324 322 316 312 310 307 305 303 301 302 301 299 297 295 296 298 299 298 298 296 291 285 280 277 275 275 274 272 270 269 267
346 343 341 342 342 340 336 333 329 326 325 325 321 316 314 312 310 309 307 305 304 302 300 298 297 298 300 300 300 298 294 290 284 279 276 274 274 275 275 274 272 269
346 342 340 339 337 334 330 328 327 325 324 324 320 314 312 312 312 311 308 307 305 304 303 299 298 300 302 301 300 298 293 287 283 277 274 273 275 277 278 276 274 273
348 343 340 336 332 329 327 325 324 324 325 325 322 317 313 313 314 312 310 309 309 308 306 303 300 303 306 304 302 300 294 287 281 274 271 273 275 279 280 278 276 275
351 345 339 334 330 328 328 327 326 325 326 325 324 321 318 317 318 318 314 313 314 314 312 310 308 308 309 310 307 303 296 288 279 270 266 270 275 277 278 279 278 277